Regional Weather Roundup
Issued by NWS Albany, NY

Home | Current Version | Previous Version | Graphics & Text | Print | Product List | Glossary Off
Versions: 1 2 3 4 5 6 7 8 9 10 11 12 13 14 15 16 17 18 19 20 21 22 23 24 25 26 27 28 29 30 31 32 33 34 35 36 37 38 39 40 41 42 43 44 45 46 47 48 49 50

000
ASUS41 KALY 270810
RWRALY

NEW YORK STATE HOURLY WEATHER ROUNDUP
NATIONAL WEATHER SERVICE ALBANY NY
300 AM EST FRI FEB 27 2015

NOTE: "FAIR" INDICATES FEW OR NO CLOUDS BELOW 12,000 FEET WITH NO
SIGNIFICANT WEATHER AND/OR NO OBSTRUCTIONS TO VISIBILITY.

NYZ032-033-038>043-046>054-057>066-NYZ062>081-270900-
EAST


CITY           SKY/WX    TMP DP  RH WIND       PRES   REMARKS
ALBANY         CLOUDY     8  -5  55 N6        30.25R WCI  -2
GLENS FALLS    MOCLDY     2  -6  69 CALM      30.24R
POUGHKEEPSIE   CLEAR      7   0  73 CALM      30.23R
NEWBURGH       PTCLDY    14   1  57 CALM      30.17S
MONTGOMERY     MOCLDY     3  -1  83 CALM      30.19R
WHITE PLAINS   CLEAR     15   0  51 NW8       30.17R WCI   4
ISLIP          MOCLDY    19   8  62 NW3       30.19R
NEW YORK CITY  CLOUDY    21   5  50 N7        30.21R WCI  12
CENTRAL PARK   CLEAR     21   5  50 N7        30.22R WCI  12
$$

NYZ005>009-017-018-044>046-055-056-270900-
CENTRAL


CITY           SKY/WX    TMP DP  RH WIND       PRES   REMARKS
FULTON         LGT SNOW   5   0  79 CALM      30.27R
SYRACUSE       FLURRIES   9   2  72 W5        30.28R WCI   1
ROME           FAIR      -3  -6  87 CALM      30.28R
ELMIRA         CLEAR      0  -3  87 CALM      30.24R
BINGHAMTON     CLOUDY     3  -1  83 NW7       30.14R WCI  -9
MONTICELLO     CLOUDY     9   3  78 NW9       30.12S WCI  -5
$$

NYZ026>034-041>043-270900-
NORTH


CITY           SKY/WX    TMP DP  RH WIND       PRES   REMARKS
WATERTOWN      PTCLDY    -3  -9  75 E5        30.27R WCI -13
FORT DRUM      NOT AVBL
MASSENA        CLEAR    -10 -17  71 CALM      30.29R
SARANAC LAKE   CLEAR    -13 -17  82 CALM      30.08S
PLATTSBURGH    CLEAR     -3 -11  68 W3        30.24R
$$

NYZ001>004-010>016-019>021-270900-
WEST


CITY           SKY/WX    TMP DP  RH WIND       PRES   REMARKS
NIAGARA FALLS  CLOUDY     6  -1  73 NW7       30.31R WCI  -6
BUFFALO        FLURRIES   8  -1  66 NW9       30.29R WCI  -5
DUNKIRK        LGT SNOW   6   1  80 CALM      30.32R
JAMESTOWN      CLOUDY     1   0  92 N6        30.17S WCI -10
WELLSVILLE     MOCLDY     0  -4  83 NW6       30.13R WCI -12
ROCHESTER      PTCLDY     8   3  80 W6        30.28R WCI  -2
PENN YAN       CLEAR      6   0  76 SW3       30.23R
$$

             KEY
       WCI = WIND CHILL INDEX
       VSB = VISIBILITY
       HX  = HEAT INDEX
$$



USA.gov is the U.S. government's official web portal to all federal, state and local government web resources and services.